Victoria, TX

12:08 AM CST on December 06, 2019 (GMT -0600)
Victoria Regional

Weather History for KVCT - October, 2019

Change the Weather History Date:

Saturday, October 12, 2019

  Actual Average Record
Temperature  
Mean Temperature 67 °F 73 °F  
Max Temperature 77 °F 85 °F 103 °F (1926)
Min Temperature 57 °F 62 °F 47 °F (1994)
Degree Days  
Heating Degree Days 0 0  
Month to date heating degree days 0 0  
Since 1 July heating degree days 0 1  
Cooling Degree Days 2 9  
Month to date cooling degree days 173 118  
Year to date cooling degree days 3438 2916  
Growing Degree Days 17 (Base 50)    
Moisture  
Dew Point 40 °F    
Average Humidity 43    
Maximum Humidity 72    
Minimum Humidity 22    
Precipitation  
Precipitation 0.00 in 0.16 in 3.04 in (2006)
Month to date precipitation 0.40 1.74  
Year to date precipitation 19.76 32.77  
Snow  
Snow 0.00 in 0.00 in 0.00 in (2002)
Month to date snowfall 0.0 0.0  
Since 1 July snowfall 0.0 0.0  
Since 1 September snowfall 0.0 0.0  
Snow Depth 0.00 in    
Sea Level Pressure  
Sea Level Pressure 30.14 in    
Wind  
Wind Speed 10 mph ()    
Max Wind Speed 22 mph    
Max Gust Speed 29 mph    
Visibility 10.0 miles    
Events      
T = Trace of Precipitation, MM = Missing Value Source: Averaged Metar Reports

Daily Weather History Graph

Daily Weather History Graph

Search for Another Location

Airport or City:

Astronomy

Oct. 12, 2019 Rise Set
Actual Time 7:26 AM CDT 7:01 PM CDT
Civil Twilight 7:03 AM CDT 7:24 PM CDT
Nautical Twilight 6:35 AM CDT 7:52 PM CDT
Astronomical Twilight 6:08 AM CDT 8:19 PM CDT
Moon 6:48 PM CDT (10/12) 6:17 AM CDT (10/12)
Length of Visible Light 12h 21m
Length of Day
11h 34m
Waxing Gibbous, 99% of the Moon is Illuminated
Oct 12
Waxing Gibbous
Oct 13
Full
Oct 21
Last Quarter
Oct 27
New
Nov 4
First Quarter

Hourly Weather History & Observations

Time (CDT) Temp. Dew Point Humidity Pressure Visibility Wind Dir Wind Speed Gust Speed Precip Events Conditions
12:51 AM 57.9 °F 44.1 °F 60% 30.19 in 10.0 mi NNE 10.4 mph - N/A   Overcast
1:51 AM 59.0 °F 41.0 °F 51% 30.19 in 10.0 mi NNE 12.7 mph - N/A   Overcast
2:51 AM 60.1 °F 37.0 °F 42% 30.17 in 10.0 mi NNE 15.0 mph - N/A   Overcast
3:51 AM 59.0 °F 36.0 °F 42% 30.17 in 10.0 mi NNE 13.8 mph 23.0 mph N/A   Overcast
4:51 AM 59.0 °F 35.1 °F 41% 30.18 in 10.0 mi North 11.5 mph 20.7 mph N/A   Overcast
5:51 AM 57.9 °F 36.0 °F 44% 30.20 in 10.0 mi North 11.5 mph - N/A   Overcast
6:51 AM 57.9 °F 35.1 °F 42% 30.20 in 10.0 mi NNE 12.7 mph - N/A   Overcast
7:51 AM 57.0 °F 33.1 °F 40% 30.21 in 10.0 mi North 11.5 mph - N/A   Overcast
8:51 AM 57.0 °F 34.0 °F 42% 30.21 in 10.0 mi North 12.7 mph - N/A   Overcast
9:51 AM 59.0 °F 35.1 °F 41% 30.22 in 10.0 mi North 15.0 mph - N/A   Overcast
10:51 AM 61.0 °F 35.1 °F 38% 30.24 in 10.0 mi North 13.8 mph - N/A   Overcast
12:51 PM 69.1 °F 37.9 °F 32% 30.17 in 10.0 mi NNE 11.5 mph - N/A   Overcast
1:51 PM 73.0 °F 36.0 °F 26% 30.13 in 10.0 mi North 12.7 mph 19.6 mph N/A   Scattered Clouds
2:51 PM 75.0 °F 37.9 °F 26% 30.10 in 10.0 mi NNW 9.2 mph 17.3 mph N/A   Clear
3:51 PM 75.9 °F 36.0 °F 23% 30.07 in 10.0 mi North 9.2 mph - N/A   Clear
4:52 PM 77.0 °F 36.0 °F 23% 30.06 in - Calm Calm - N/A   Unknown
5:51 PM 75.0 °F 41.0 °F 29% 30.05 in 10.0 mi North 5.8 mph - N/A   Clear
6:51 PM 69.1 °F 46.0 °F 44% 30.03 in 10.0 mi NNE 6.9 mph - N/A   Clear
7:51 PM 64.9 °F 46.9 °F 52% 30.04 in 10.0 mi NE 5.8 mph - N/A   Clear
8:51 PM 61.0 °F 46.0 °F 58% 30.07 in 10.0 mi North 8.1 mph - N/A   Clear
9:51 PM 59.0 °F 46.9 °F 64% 30.08 in 10.0 mi NNE 5.8 mph - N/A   Clear
10:51 PM 57.9 °F 48.0 °F 70% 30.07 in 10.0 mi NE 6.9 mph - N/A   Clear
11:51 PM 59.0 °F 48.9 °F 69% 30.07 in 10.0 mi North 5.8 mph - N/A   Mostly Cloudy